Wind_Speed
8 7 7 6 6 7 7 7 6 5 4 3 2 2 2 3 3 4 3 3 3 3 3 3 3 4 4 5 6 6 5 4 3 2 2 1 1 0 0 1 1 1 1 1 0 1 1 1 2
9 9 9 8 7 7 9 9 8 7 6 6 5 5 5 4 4 4 4 3 3 3 4 5 5 6 6 7 8 7 7 6 5 4 4 3 3 2 2 2 2 2 2 2 2 2 2 1 1
11 11 11 11 10 10 12 10 9 9 8 8 8 8 7 7 6 5 5 4 4 4 5 6 7 7 8 8 9 9 8 7 6 6 5 5 4 4 4 4 4 4 4 4 4 4 4 4 3
13 13 13 13 14 14 14 12 11 12 11 11 11 11 10 9 8 7 7 6 6 6 7 8 9 9 10 10 10 10 10 9 8 8 7 7 6 6 5 5 5 5 6 6 6 6 6 6 6
15 15 15 16 17 17 16 15 14 14 14 13 13 13 11 11 10 9 9 8 7 8 9 9 10 11 12 12 12 12 11 11 10 10 9 8 8 8 7 7 7 7 7 7 7 8 8 8 8
17 17 17 17 20 20 19 18 17 17 17 16 15 15 14 13 12 11 10 9 9 10 11 12 12 13 13 13 14 13 13 13 12 12 11 11 10 10 9 9 9 9 9 9 9 9 10 10 11
18 18 18 20 22 22 21 20 19 18 19 18 18 18 16 15 13 12 11 11 12 12 13 13 14 15 15 15 15 15 15 15 14 14 14 13 12 12 11 11 11 11 10 11 11 11 11 12 12
19 19 19 20 22 24 23 22 20 20 20 20 19 19 18 17 15 13 14 14 14 14 15 15 15 16 16 16 17 17 18 17 17 17 16 16 16 15 15 14 13 13 13 13 13 13 13 13 14
19 19 20 21 22 23 23 23 22 20 20 21 22 21 19 18 16 15 16 16 16 17 17 17 17 18 18 18 18 19 21 21 20 20 20 19 19 19 18 18 17 16 15 15 15 15 15 15 15
18 18 20 21 21 22 23 23 22 21 21 22 22 22 21 20 19 18 19 19 19 19 19 19 19 19 19 20 20 21 23 23 23 23 23 23 23 22 22 21 20 19 18 18 17 17 17 17 17
16 17 18 20 20 20 21 22 22 22 23 23 22 22 23 22 22 22 21 21 21 21 20 20 21 20 21 21 22 22 23 24 25 26 25 25 25 24 24 24 22 21 21 20 20 20 20 20 20
15 15 16 17 18 18 19 21 22 22 23 22 22 23 23 24 24 23 22 22 21 21 21 22 22 21 22 22 22 22 22 23 24 24 26 28 26 25 26 25 24 23 23 22 22 21 21 22 22
13 14 14 15 15 16 17 18 21 21 21 22 23 23 24 24 24 23 23 22 21 21 22 21 22 22 22 23 22 22 23 24 23 23 23 25 25 25 25 27 26 25 25 24 24 23 23 23 23
12 12 13 13 14 15 15 17 18 19 20 20 21 23 23 23 23 23 23 22 22 22 22 21 22 22 21 21 22 22 22 22 23 23 22 24 25 25 26 26 26 25 25 24 24 24 24 25 25
11 11 12 14 15 15 15 15 16 17 19 19 20 21 22 23 23 23 23 22 22 22 22 22 22 21 20 19 19 20 21 22 22 23 23 24 24 24 24 24 24 24 24 25 25 25 25 25 25
12 12 13 14 14 14 14 15 15 16 17 18 19 20 21 22 22 22 22 22 22 22 22 21 19 18 16 16 16 18 19 20 20 21 22 23 24 25 25 26 26 26 26 26 26 27 27 26 25
13 11 12 15 14 14 13 14 13 13 14 17 19 20 21 21 21 22 21 21 20 20 19 18 16 14 14 14 14 16 17 18 20 21 21 23 24 25 26 27 28 29 29 28 29 29 28 28 28
10 11 12 14 14 14 13 13 12 12 12 14 16 18 19 20 20 20 20 20 18 17 16 14 13 13 13 14 15 16 17 19 20 21 22 22 23 24 26 27 28 30 31 31 31 31 31 31 30
10 11 12 13 13 13 12 12 11 11 11 12 13 14 15 16 17 18 18 17 15 14 13 12 12 13 14 15 16 17 18 20 21 22 23 24 25 26 26 27 28 29 31 31 32 32 32 33 33
10 11 11 12 11 12 12 11 11 11 11 10 10 10 11 12 12 12 12 12 12 13 12 12 13 14 15 16 17 19 20 21 22 24 24 26 27 27 27 28 29 29 30 31 32 33 33 33 34
10 10 11 11 11 11 10 10 10 10 10 9 8 8 8 9 9 9 9 10 10 11 11 12 13 15 16 18 19 21 22 23 24 25 26 26 27 28 28 29 30 30 31 31 32 32 33 34 34
10 10 10 11 11 11 11 11 10 10 9 8 7 6 7 7 8 8 8 8 9 10 12 13 15 17 18 20 22 23 24 25 26 26 27 28 28 29 29 30 30 30 31 31 32 32 33 34 35
9 9 10 10 9 9 9 9 9 9 9 8 7 6 7 7 7 7 7 8 10 11 13 15 16 18 20 21 23 24 25 26 26 27 28 29 29 30 30 30 30 30 31 31 32 32 33 34 35
9 9 9 10 9 8 9 8 9 9 9 8 7 7 6 6 7 7 8 9 11 13 14 16 18 19 21 22 24 25 26 26 27 28 29 30 30 30 30 30 31 31 31 32 32 33 34 35 35
9 8 8 9 9 9 9 8 8 9 8 8 7 7 7 7 8 9 10 11 13 14 16 17 19 20 22 23 24 25 26 27 28 28 29 29 30 30 30 31 31 31 31 32 33 33 34 35 36
8 8 6 6 7 9 9 9 9 8 8 8 8 8 8 8 9 11 12 13 14 15 17 18 19 21 22 24 24 25 25 26 27 28 28 29 29 30 30 30 30 31 32 33 34 34 34 35 36
8 7 8 7 7 7 9 9 9 9 9 8 8 9 9 10 11 12 13 14 15 17 18 19 20 22 23 23 23 24 25 26 27 27 28 28 28 29 30 30 31 31 32 32 33 34 34 35 36
8 7 6 4 5 5 8 9 10 9 8 8 8 9 10 11 12 13 14 15 16 17 18 19 20 22 22 22 23 25 25 26 26 27 27 28 29 29 28 29 30 30 31 32 32 33 33 34 35
7 7 6 5 5 2 6 8 9 8 8 9 9 10 11 13 14 15 15 16 16 17 18 19 21 21 22 22 23 24 25 26 26 27 28 28 28 28 29 29 30 31 32 33 33 34 34 34 34
7 6 5 4 5 4 4 8 9 9 9 10 10 11 12 13 14 15 15 16 16 17 19 20 21 21 22 23 24 25 26 27 28 29 29 29 30 30 30 30 31 32 33 33 33 33 34 34 35
Wind_Direction
355 348 340 331 325 325 315 317 314 309 301 295 288 289 323 354 1 352 348 341 338 334 341 342 330 321 305 297 300 301 297 291 289 291 297 306 299 283 25 48 31 21 20 34 70 87 117 119 128
337 329 317 312 306 299 298 301 298 293 290 291 289 295 313 322 330 338 331 327 325 316 319 325 320 312 303 295 294 296 292 285 284 281 279 278 277 270 266 264 268 270 272 272 267 258 244 222 195
320 313 305 300 291 280 283 289 286 281 280 282 286 294 304 306 309 318 319 319 316 315 314 315 311 307 300 292 289 288 284 282 282 281 277 271 272 271 267 262 260 260 262 264 265 263 258 254 246
307 303 295 290 282 280 280 280 278 274 272 275 280 287 295 297 298 303 304 301 304 309 311 311 308 303 298 291 286 282 280 279 277 277 275 269 267 266 267 265 261 259 259 259 261 261 261 260 257
299 296 290 285 279 276 274 272 270 269 267 268 273 281 288 292 292 294 296 293 297 304 306 304 304 300 293 287 282 278 276 275 275 274 271 267 264 262 263 264 265 264 262 260 260 262 260 261 259
295 292 285 275 274 274 271 269 265 264 263 264 267 273 281 285 286 289 289 289 291 299 304 301 297 294 289 282 276 273 273 274 273 271 269 265 264 263 263 265 266 267 265 263 264 264 263 261 261
292 288 281 275 273 270 268 267 263 262 261 261 265 269 276 280 281 282 282 285 290 295 297 296 294 291 285 280 273 267 267 269 269 269 268 266 265 266 266 266 267 267 266 266 267 267 268 264 262
289 285 279 273 269 266 267 265 263 260 259 260 262 267 272 278 276 277 284 286 287 290 292 292 292 289 280 276 275 268 263 264 264 266 265 265 265 264 265 267 267 266 267 268 269 267 265 265 264
288 283 277 272 267 265 265 261 261 260 258 259 263 265 269 273 274 277 284 283 285 288 289 289 288 285 278 272 270 266 260 259 260 262 263 263 264 265 266 266 265 266 266 267 267 265 262 262 264
289 280 275 273 270 266 264 260 259 259 256 256 258 261 265 271 275 281 283 285 289 292 289 286 287 283 277 274 272 266 260 258 260 263 264 263 264 265 266 265 264 264 265 266 265 263 262 261 262
292 284 280 277 274 269 262 258 257 256 254 254 256 260 267 273 278 281 283 287 290 294 288 285 285 279 274 272 271 269 266 263 263 264 264 265 268 268 268 267 266 265 267 269 269 265 263 263 262
297 292 289 285 280 273 264 261 259 258 257 257 257 261 267 273 276 279 281 285 289 291 289 287 286 278 272 271 271 270 271 269 269 271 269 264 268 268 267 266 268 269 270 270 269 268 267 267 265
304 300 296 292 287 279 272 266 262 259 257 257 256 259 264 269 272 275 280 283 285 288 289 286 281 279 276 271 272 271 271 271 273 274 271 266 265 267 267 265 269 270 271 271 271 273 271 270 268
314 308 304 300 295 287 280 273 265 258 256 257 258 259 261 264 268 273 278 281 285 288 291 287 285 282 280 277 270 269 272 275 274 275 277 273 269 272 269 270 271 271 271 270 273 275 273 271 269
323 320 317 309 302 295 290 281 270 258 254 256 258 259 260 264 269 273 276 279 283 285 287 287 285 284 280 280 276 275 274 276 281 278 279 277 276 276 275 275 275 274 271 272 273 274 274 271 269
332 332 324 312 309 303 298 290 281 265 258 257 257 259 262 264 268 270 273 277 281 285 285 286 285 284 284 281 281 282 280 281 286 285 283 281 280 279 277 275 275 274 273 273 274 275 274 271 268
333 325 311 311 313 311 305 298 291 278 268 260 257 258 261 264 265 266 270 275 282 288 287 286 285 285 288 288 291 292 290 293 293 289 288 285 282 280 279 276 275 274 274 273 273 274 273 270 268
305 311 313 312 314 315 311 303 295 290 282 272 265 262 262 263 265 266 269 275 280 288 289 290 291 294 297 298 297 297 297 297 297 294 292 290 286 284 282 279 277 275 274 274 273 273 272 270 267
321 322 319 317 317 318 315 309 305 299 293 286 278 270 266 266 270 270 269 275 279 286 290 291 299 298 298 299 301 302 302 302 301 296 292 290 287 286 284 282 280 277 275 274 273 272 271 269 266
323 327 326 324 324 324 323 316 310 307 304 295 285 277 270 269 275 278 276 279 284 288 290 297 303 304 303 304 305 305 304 304 302 299 296 293 292 290 287 283 282 280 277 274 273 272 271 269 267
321 323 322 324 324 324 328 326 322 321 314 308 293 280 279 275 277 284 284 284 286 293 298 301 304 305 305 306 307 307 307 306 304 302 300 297 295 292 290 286 283 280 278 276 274 272 271 269 266
315 318 319 321 325 328 332 330 326 325 324 321 312 302 300 287 287 289 293 291 295 302 304 305 308 309 309 310 310 309 309 307 306 305 303 301 298 295 291 288 285 282 279 277 275 273 271 269 267
310 314 320 325 324 325 332 340 337 333 332 331 327 324 321 317 314 310 310 310 311 313 313 311 310 310 310 310 310 309 308 308 307 306 305 303 301 298 295 291 288 284 281 279 277 275 272 269 267
308 310 318 328 331 327 329 340 336 332 334 336 338 338 339 338 338 333 329 324 320 316 313 311 310 309 309 310 310 309 308 308 307 306 305 303 301 299 297 294 291 287 284 281 278 276 274 271 267
302 310 327 328 325 311 319 329 329 334 341 346 349 350 348 345 342 338 335 327 320 316 313 312 312 312 312 313 312 311 310 309 309 308 307 306 304 302 299 296 293 290 287 284 281 279 276 273 269
293 293 293 295 301 307 315 320 327 336 342 348 350 347 346 341 336 332 328 322 317 314 313 313 313 315 315 315 316 315 315 314 313 312 310 308 306 303 301 299 296 293 290 287 283 280 277 274 270
288 288 287 296 307 316 311 317 324 327 334 342 345 344 341 336 332 328 323 319 316 315 314 314 315 316 317 318 319 319 318 316 315 314 313 310 307 305 302 300 298 296 293 289 286 283 279 275 271
285 289 291 290 290 310 314 317 320 323 327 332 334 334 333 330 326 323 319 317 316 315 314 314 316 317 319 320 321 321 321 320 318 317 316 314 311 308 305 303 301 298 295 291 287 283 280 277 273
282 281 280 278 271 271 301 303 309 315 320 323 324 326 326 325 322 320 319 318 317 317 318 318 319 320 321 322 323 324 324 322 321 321 319 317 314 311 308 306 303 300 296 292 288 284 281 277 274
270 270 270 272 277 274 288 295 302 308 314 316 318 320 321 321 320 319 320 319 319 320 322 323 324 325 326 326 326 327 326 326 325 323 322 319 317 314 312 309 307 303 299 295 290 286 282 278 274
Height
5931 5930 5929 5929 5929 5929 5928 5927 5926 5925 5924 5924 5923 5922 5921 5920 5920 5921 5918 5916 5916 5915 5915 5914 5914 5914 5914 5913 5912 5911 5910 5910 5909 5908 5908 5907 5907 5906 5906 5906 5905 5905 5905 5904 5904 5904 5903 5903 5903
5930 5929 5929 5928 5928 5928 5927 5925 5924 5924 5923 5922 5921 5920 5919 5918 5918 5917 5916 5915 5914 5914 5913 5913 5913 5912 5912 5912 5911 5910 5909 5909 5908 5907 5907 5906 5906 5905 5905 5905 5905 5904 5904 5904 5904 5903 5903 5903 5903
5928 5927 5927 5926 5926 5926 5924 5923 5923 5922 5922 5921 5920 5919 5918 5917 5916 5915 5914 5914 5913 5912 5911 5911 5911 5910 5910 5909 5909 5908 5908 5907 5906 5906 5905 5905 5905 5904 5904 5903 5903 5903 5903 5903 5903 5903 5903 5903 5902
5926 5925 5925 5924 5922 5921 5921 5921 5920 5920 5919 5919 5918 5917 5916 5915 5914 5914 5913 5912 5911 5910 5910 5909 5909 5908 5907 5907 5907 5906 5906 5905 5905 5904 5904 5903 5903 5903 5902 5902 5902 5902 5902 5902 5901 5901 5901 5901 5901
5923 5922 5922 5920 5918 5918 5917 5917 5917 5917 5917 5917 5916 5915 5914 5913 5912 5912 5911 5910 5909 5909 5908 5907 5906 5906 5905 5904 5904 5904 5903 5903 5903 5902 5902 5901 5901 5901 5901 5900 5900 5900 5900 5900 5900 5899 5899 5899 5900
5919 5919 5918 5917 5914 5913 5913 5914 5914 5914 5914 5914 5914 5913 5912 5911 5910 5910 5909 5908 5907 5906 5905 5904 5904 5903 5902 5901 5901 5901 5901 5900 5900 5900 5899 5899 5899 5899 5898 5898 5898 5898 5898 5898 5898 5898 5898 5898 5898
5916 5914 5913 5912 5909 5909 5909 5909 5910 5911 5911 5911 5911 5910 5909 5909 5908 5907 5906 5905 5904 5903 5902 5901 5900 5899 5899 5898 5898 5898 5898 5898 5897 5897 5897 5897 5896 5896 5896 5896 5896 5896 5896 5896 5896 5895 5895 5895 5895
5910 5910 5908 5907 5905 5904 5904 5905 5906 5907 5907 5908 5907 5907 5906 5906 5905 5904 5903 5902 5901 5900 5899 5898 5897 5896 5895 5895 5894 5894 5894 5894 5894 5894 5894 5893 5893 5893 5893 5893 5893 5892 5893 5893 5892 5892 5892 5892 5892
5905 5905 5903 5902 5901 5900 5899 5900 5901 5902 5903 5903 5904 5904 5903 5903 5902 5901 5900 5899 5898 5897 5896 5895 5894 5892 5891 5891 5890 5890 5890 5890 5890 5890 5890 5889 5889 5889 5889 5889 5889 5889 5889 5888 5888 5889 5889 5889 5889
5900 5900 5897 5896 5896 5895 5894 5895 5896 5898 5899 5899 5900 5900 5900 5899 5899 5898 5897 5896 5895 5894 5892 5891 5890 5889 5888 5887 5886 5885 5885 5885 5885 5885 5884 5884 5885 5884 5884 5884 5884 5884 5884 5884 5884 5884 5884 5884 5884
5895 5894 5892 5890 5890 5890 5890 5891 5892 5893 5894 5894 5895 5895 5896 5896 5896 5895 5893 5892 5891 5890 5888 5887 5886 5885 5884 5883 5882 5881 5880 5880 5880 5879 5879 5879 5879 5880 5879 5879 5879 5878 5878 5878 5878 5879 5879 5879 5880
5890 5889 5887 5886 5886 5885 5886 5886 5887 5888 5890 5890 5891 5892 5892 5892 5891 5890 5889 5888 5887 5886 5884 5883 5882 5880 5879 5878 5877 5876 5876 5875 5874 5873 5873 5873 5874 5874 5874 5874 5873 5873 5873 5873 5873 5873 5874 5874 5874
5886 5885 5884 5883 5882 5881 5882 5882 5883 5884 5885 5886 5887 5887 5888 5887 5887 5886 5885 5884 5883 5881 5880 5878 5877 5876 5875 5874 5873 5871 5871 5870 5869 5868 5868 5867 5868 5868 5868 5868 5867 5867 5867 5867 5867 5868 5868 5868 5868
5883 5882 5880 5879 5878 5878 5878 5878 5879 5879 5880 5881 5882 5883 5883 5882 5882 5881 5881 5880 5879 5877 5876 5874 5873 5871 5870 5869 5867 5866 5866 5865 5864 5864 5863 5862 5862 5862 5863 5863 5862 5862 5862 5862 5862 5862 5862 5862 5862
5880 5879 5878 5877 5875 5875 5875 5875 5875 5875 5876 5877 5878 5878 5878 5878 5877 5877 5876 5875 5874 5873 5871 5870 5868 5867 5865 5864 5863 5862 5861 5861 5860 5860 5859 5858 5857 5857 5857 5857 5856 5856 5856 5856 5856 5856 5856 5856 5856
5879 5878 5878 5875 5873 5872 5874 5872 5871 5871 5872 5872 5873 5873 5873 5873 5873 5872 5871 5871 5870 5868 5867 5865 5864 5862 5861 5860 5859 5858 5858 5857 5856 5855 5854 5853 5852 5852 5851 5851 5851 5850 5850 5850 5850 5849 5849 5849 5849
5878 5878 5877 5874 5871 5870 5870 5869 5867 5867 5867 5867 5868 5868 5868 5868 5868 5867 5867 5866 5865 5864 5862 5861 5860 5859 5858 5857 5856 5855 5854 5853 5851 5850 5848 5848 5847 5846 5845 5845 5844 5844 5843 5843 5843 5842 5842 5842 5843
5878 5876 5874 5872 5869 5868 5867 5866 5864 5863 5863 5863 5863 5863 5863 5863 5862 5862 5862 5862 5861 5860 5859 5858 5857 5856 5855 5854 5853 5852 5851 5849 5846 5845 5843 5842 5841 5840 5839 5838 5837 5836 5836 5835 5835 5835 5835 5835 5835
5875 5874 5872 5870 5868 5866 5865 5863 5862 5861 5860 5859 5859 5858 5858 5858 5858 5857 5857 5857 5857 5857 5856 5855 5854 5853 5852 5851 5849 5848 5846 5844 5842 5840 5839 5837 5835 5834 5832 5830 5829 5829 5828 5827 5827 5827 5826 5826 5827
5873 5872 5871 5868 5866 5864 5863 5861 5860 5859 5858 5857 5856 5855 5855 5855 5854 5854 5853 5854 5854 5854 5853 5852 5851 5850 5849 5847 5845 5843 5841 5839 5837 5835 5833 5831 5828 5826 5824 5823 5822 5821 5820 5819 5819 5818 5818 5818 5818
5872 5871 5869 5867 5865 5863 5862 5860 5859 5857 5856 5855 5853 5853 5853 5852 5852 5852 5851 5852 5852 5851 5850 5849 5848 5847 5845 5843 5841 5839 5836 5834 5831 5828 5826 5823 5821 5819 5817 5815 5814 5813 5811 5811 5810 5809 5809 5809 5809
5871 5869 5868 5866 5864 5863 5862 5860 5858 5856 5854 5853 5852 5851 5851 5850 5850 5849 5849 5849 5849 5848 5847 5846 5845 5843 5841 5838 5836 5833 5831 5828 5825 5822 5819 5816 5814 5811 5809 5807 5806 5804 5803 5802 5801 5800 5800 5800 5800
5869 5867 5866 5864 5863 5862 5861 5860 5859 5855 5854 5852 5851 5850 5850 5849 5848 5847 5847 5846 5846 5845 5844 5843 5841 5839 5837 5834 5831 5828 5825 5822 5819 5816 5812 5809 5806 5803 5801 5799 5797 5795 5794 5793 5792 5791 5790 5790 5790
5867 5866 5865 5864 5863 5863 5861 5860 5859 5855 5854 5852 5850 5849 5849 5848 5847 5846 5845 5845 5844 5843 5841 5840 5838 5835 5833 5830 5827 5823 5820 5816 5813 5809 5806 5802 5799 5796 5793 5790 5788 5786 5785 5783 5782 5781 5780 5780 5779
5866 5866 5867 5866 5865 5863 5860 5859 5858 5855 5853 5852 5850 5849 5848 5847 5846 5845 5844 5843 5842 5841 5839 5837 5834 5831 5828 5825 5822 5818 5814 5811 5807 5803 5799 5795 5791 5788 5785 5782 5780 5777 5775 5774 5772 5771 5770 5769 5769
5864 5865 5866 5865 5864 5862 5859 5857 5857 5854 5853 5851 5850 5848 5847 5846 5845 5844 5843 5841 5840 5838 5836 5833 5831 5827 5824 5820 5817 5813 5809 5805 5801 5797 5793 5789 5785 5781 5777 5774 5771 5769 5766 5764 5763 5761 5760 5759 5759
5862 5862 5862 5862 5861 5860 5859 5857 5855 5853 5852 5850 5849 5848 5847 5846 5844 5843 5841 5839 5838 5835 5833 5830 5827 5823 5820 5816 5812 5808 5804 5799 5795 5791 5787 5782 5778 5774 5770 5767 5763 5760 5758 5755 5753 5751 5749 5748 5748
5861 5860 5860 5860 5860 5861 5859 5856 5855 5852 5851 5850 5848 5847 5846 5845 5843 5841 5839 5837 5835 5833 5830 5827 5823 5820 5816 5811 5807 5803 5799 5794 5790 5785 5781 5776 5771 5767 5763 5759 5755 5752 5749 5746 5743 5741 5739 5738 5737
5859 5859 5858 5858 5858 5859 5859 5858 5853 5852 5850 5849 5847 5846 5845 5843 5841 5839 5837 5835 5832 5829 5826 5823 5819 5815 5811 5807 5802 5798 5793 5789 5784 5779 5774 5769 5764 5760 5756 5751 5747 5743 5740 5736 5733 5731 5729 5727 5726
5856 5856 5856 5857 5856 5856 5857 5858 5851 5850 5849 5847 5846 5844 5843 5841 5839 5837 5834 5832 5829 5826 5823 5819 5815 5810 5806 5802 5797 5792 5788 5783 5778 5773 5767 5762 5757 5752 5747 5743 5738 5734 5729 5726 5722 5720 5718 5716 5715